Flag for Germany Weather past 2 weeks in Fürstenfeldbruck, Bavaria, Germany

Now
63 °F

Partly sunny.


Feels Like: 63 °F
Forecast: 49 / 62 °F
Wind: 7 mph from Southwest

Location: Oberpfaffenhofen

Current Time: Sep 4, 2015 at 2:49:52 PM

Latest Report: Sep 4, 2015 at 2:20 PM


Visibility: N/A

Pressure: 30.04 "Hg (28.26 "Hg at 520m altitude)

Humidity: 64%

Dew point: 50 °F

Location of FürstenfeldbruckLocation

Historic Weather in Fürstenfeldbruck — Graph

°F

Fürstenfeldbruck temperature yesterday

Maximum temperature yesterday: 63 °F (at 1:20 PM)
Minimum temperature yesterday: 55 °F (at 6:50 AM)
Average temperature yesterday: 58 °F

Past Weeks' High & Low Weather Summary

 TemperatureHumidityPressure
High86 °F (Aug 29, 4:20 PM)100% (Aug 20, 8:50 PM)30.30 "Hg (Aug 20, 8:50 PM)
Low37 °F (Sep 2, 3:20 PM)27% (Aug 27, 3:20 PM)29.74 "Hg (Aug 24, 2:50 PM)
Average68 °F64%30.05 "Hg
* Reported Aug 20 1:20 PM — Sep 4 1:50 PM, Fürstenfeldbruck, Weather by CustomWeather, © 2015

Note: Actual official high and low records may vary slightly from our data, if they occured in-between our weather recording intervals... More about our weather records

Advertising

Fürstenfeldbruck weather history for previous 24 hours

 ConditionsComfort  
Time TempWeatherWind HumidityBarometerVisibility
1:50 PM
Fri, Sep 4
63 °FPartly sunny.7 mph64%30.04 "HgN/A
1:20 PM63 °FBroken clouds.6 mph68%30.04 "HgN/A
12:50 PM61 °FScattered clouds.8 mph77%30.04 "HgN/A
12:20 PM59 °FScattered clouds.6 mph77%30.04 "HgN/A
11:50 AM57 °FPartly sunny.6 mph82%30.07 "HgN/A
11:20 AM57 °FPartly sunny.6 mph88%30.07 "HgN/A
10:50 AM55 °FPartly sunny.3 mph88%30.07 "HgN/A
10:20 AM55 °FPartly sunny.3 mph94%30.07 "HgN/A
9:50 AM55 °FSunny.3 mph94%30.07 "Hg10 mi
9:20 AM54 °FSunny.7 mph100%30.04 "Hg10 mi
8:50 AM54 °FSunny.7 mph94%30.04 "Hg10 mi
8:20 AM54 °FSunny.5 mph94%30.04 "Hg10 mi
7:50 AM52 °FSunny.2 mph100%30.04 "Hg10 mi
7:20 AM52 °FClear.2 mph94%30.04 "Hg10 mi
6:50 AM50 °FClear.7 mph100%30.04 "Hg10 mi
6:50 PM
Thu, Sep 3
57 °FLight rain. More clouds than sun.1 mph94%29.98 "Hg4 mi
6:20 PM57 °FRain. More clouds than sun.2 mph94%29.98 "Hg4 mi
5:50 PM57 °FRain. More clouds than sun.3 mph94%29.98 "Hg3 mi
5:20 PM57 °FLight rain. More clouds than sun.6 mph94%29.98 "Hg4 mi
4:50 PM59 °FBroken clouds.7 mph88%29.95 "HgN/A
4:20 PM59 °FBroken clouds.10 mph88%29.95 "Hg5 mi
3:50 PM59 °FSprinkles. Broken clouds.6 mph88%29.98 "Hg4 mi
3:20 PM59 °FBroken clouds.5 mph94%29.98 "Hg4 mi
2:50 PM59 °FSprinkles. Broken clouds.7 mph88%29.98 "Hg5 mi
2:20 PM59 °FSprinkles. Broken clouds.8 mph88%29.98 "HgN/A
Weather by CustomWeather, © 2015

See weather overviewHow to use our weather pages